Weather History for Bastrop, LA

Change the Weather History Date:

Sunday, March 17, 2013

  Actual Average (KMLU) Record (KMLU)
Temperature  
Mean Temperature 69 °F 58 °F  
Max Temperature 82 °F 70 °F 91 °F (1963)
Min Temperature 56 °F 47 °F 29 °F (1978)
Degree Days  
Heating Degree Days 0 8  
Month to date heating degree days 164  
Since 1 July heating degree days 2058  
Cooling Degree Days 4 1  
Month to date cooling degree days 15  
Year to date cooling degree days 26  
Growing Degree Days 19 (Base 50)    
Moisture  
Dew Point 57 °F    
Average Humidity 67    
Maximum Humidity 91    
Minimum Humidity 37    
Precipitation  
Precipitation 0.00 in 0.15 in 2.34 in (1961)
Month to date precipitation 2.73  
Year to date precipitation 12.37  
Snow  
Snow 0.00 in - - ()
Month to date snowfall  
Since 1 July snowfall  
Snow Depth -    
Sea Level Pressure  
Sea Level Pressure 29.84 in    
Wind  
Wind Speed 6 mph (South)    
Max Wind Speed 15 mph    
Max Gust Speed 22 mph    
Visibility 10 miles    
Events      
T = Trace of Precipitation, MM = Missing Value Source: NWS Daily Summary

Daily Weather History Graph

Daily Weather History Graph

Search for Another Location

Airport:

Trip Planner

Search our weather history database for the weather conditions in past years. The results will help you decide how hot, cold, wet, or windy it might be!

Date:

Astronomy

Mar. 17, 2013 Rise Set
Actual Time 7:14 AM CDT 7:17 PM CDT
Civil Twilight 6:50 AM CDT 7:41 PM CDT
Nautical Twilight 6:21 AM CDT 8:10 PM CDT
Astronomical Twilight 5:52 AM CDT 8:39 PM CDT
Moon 10:45 AM CDT (3/17) 12:08 AM CDT (3/17)
Length of Visible Light 12h 51m
Length of Day
12h 02m
Waxing Crescent, 31% of the Moon is Illuminated
Mar 17
Waxing Crescent
Mar 19
First Quarter
Mar 27
Full
Apr 2
Last Quarter
Apr 10
New

Hourly Weather History & Observations

Time (CDT) Temp. Heat Index Dew Point Humidity Pressure Visibility Wind Dir Wind Speed Gust Speed Precip Events Conditions
12:15 AM 65.8 °F - 53.8 °F 65% 29.91 in 10.0 mi South 8.1 mph - N/A   Clear
12:35 AM 65.5 °F - 54.0 °F 66% 29.91 in 10.0 mi SSW 6.9 mph - N/A   Clear
12:55 AM 65.1 °F - 54.0 °F 67% 29.91 in 10.0 mi South 9.2 mph - N/A   Clear
1:15 AM 64.6 °F - 54.0 °F 68% 29.91 in 10.0 mi Calm Calm - N/A   Clear
1:35 AM 63.9 °F - 54.1 °F 71% 29.91 in 10.0 mi South 8.1 mph - N/A   Clear
1:55 AM 63.0 °F - 54.5 °F 74% 29.91 in 10.0 mi South 4.6 mph - N/A   Clear
2:15 AM 63.0 °F - 54.9 °F 75% 29.91 in 10.0 mi South 5.8 mph - N/A   Clear
2:35 AM 63.0 °F - 55.0 °F 75% 29.91 in 10.0 mi South 6.9 mph - N/A   Clear
2:55 AM 62.1 °F - 55.2 °F 78% 29.91 in 10.0 mi South 4.6 mph - N/A   Clear
3:15 AM 62.1 °F - 55.4 °F 79% 29.90 in 10.0 mi Calm Calm - N/A   Clear
3:35 AM 61.3 °F - 55.4 °F 81% 29.90 in 10.0 mi Calm Calm - N/A   Clear
3:55 AM 60.6 °F - 55.4 °F 83% 29.90 in 10.0 mi Calm Calm - N/A   Clear
4:15 AM 59.4 °F - 55.2 °F 86% 29.90 in 10.0 mi Calm Calm - N/A   Clear
4:35 AM 59.0 °F - 55.0 °F 87% 29.89 in 10.0 mi Calm Calm - N/A   Scattered Clouds
4:55 AM 58.1 °F - 54.5 °F 88% 29.89 in 10.0 mi Calm Calm - N/A   Clear
5:15 AM 57.4 °F - 54.5 °F 90% 29.89 in 10.0 mi Calm Calm - N/A   Clear
5:35 AM 58.5 °F - 55.4 °F 90% 29.90 in 10.0 mi Calm Calm - N/A   Clear
5:55 AM 57.9 °F - 54.7 °F 89% 29.90 in 10.0 mi Calm Calm - N/A   Clear
6:15 AM 57.9 °F - 54.9 °F 90% 29.90 in 10.0 mi Calm Calm - N/A   Clear
6:35 AM 57.4 °F - 54.7 °F 91% 29.91 in 10.0 mi Calm Calm - N/A   Clear
6:55 AM 57.4 °F - 54.7 °F 91% 29.91 in 10.0 mi Calm Calm - N/A   Clear
7:15 AM 57.2 °F - 54.5 °F 91% 29.91 in 10.0 mi Calm Calm - N/A   Clear
7:35 AM 56.8 °F - 54.3 °F 91% 29.92 in 7.0 mi Calm Calm - N/A   Clear
7:55 AM 57.4 °F - 54.9 °F 91% 29.92 in 7.0 mi Calm Calm - N/A   Clear
8:15 AM 58.6 °F - 56.1 °F 91% 29.92 in 7.0 mi Calm Calm - N/A   Clear
8:35 AM 59.9 °F - 56.7 °F 89% 29.93 in 10.0 mi Calm Calm - N/A   Clear
8:55 AM 61.0 °F - 57.0 °F 87% 29.93 in 10.0 mi Calm Calm - N/A   Clear
9:15 AM 62.6 °F - 57.2 °F 82% 29.93 in 10.0 mi South 8.1 mph - N/A   Scattered Clouds
9:35 AM 64.6 °F - 57.6 °F 78% 29.93 in 10.0 mi South 5.8 mph - N/A   Scattered Clouds
9:55 AM 66.9 °F - 58.3 °F 74% 29.93 in 10.0 mi South 8.1 mph - N/A   Clear
10:15 AM 68.0 °F - 58.1 °F 71% 29.93 in 10.0 mi Calm Calm - N/A   Mostly Cloudy
10:35 AM 69.1 °F - 58.3 °F 68% 29.93 in 10.0 mi South 5.8 mph - N/A   Mostly Cloudy
10:55 AM 70.7 °F - 59.0 °F 66% 29.92 in 10.0 mi SSE 10.4 mph - N/A   Mostly Cloudy
11:15 AM 72.0 °F - 59.2 °F 64% 29.91 in 10.0 mi SSW 10.4 mph 16.1 mph N/A   Overcast
11:35 AM 72.3 °F - 59.5 °F 64% 29.91 in 10.0 mi South 12.7 mph 18.4 mph N/A   Mostly Cloudy
11:55 AM 73.2 °F - 59.5 °F 62% 29.91 in 10.0 mi SSW 13.8 mph 18.4 mph N/A   Mostly Cloudy
12:15 PM 70.9 °F - 59.2 °F 66% 29.90 in 10.0 mi Calm Calm - N/A   Overcast
12:35 PM 73.4 °F - 59.7 °F 62% 29.89 in 10.0 mi SSW 10.4 mph - N/A   Overcast
12:55 PM 74.3 °F - 59.2 °F 59% 29.87 in 10.0 mi South 6.9 mph - N/A   Overcast
1:15 PM 75.6 °F - 58.6 °F 56% 29.86 in 10.0 mi SSW 9.2 mph - N/A   Scattered Clouds
1:35 PM 76.5 °F - 57.7 °F 52% 29.84 in 10.0 mi South 9.2 mph 18.4 mph N/A   Mostly Cloudy
1:55 PM 78.8 °F - 58.5 °F 50% 29.83 in 10.0 mi SSW 15.0 mph 18.4 mph N/A   Scattered Clouds
2:15 PM 78.6 °F - 58.3 °F 50% 29.82 in 10.0 mi SSE 10.4 mph 17.3 mph N/A   Mostly Cloudy
2:35 PM 79.2 °F - 56.7 °F 46% 29.80 in 10.0 mi SSW 8.1 mph 18.4 mph N/A   Mostly Cloudy
2:55 PM 79.0 °F - 55.6 °F 44% 29.79 in 10.0 mi South 6.9 mph 19.6 mph N/A   Overcast
3:15 PM 80.4 °F 80.5 °F 56.3 °F 43% 29.78 in 10.0 mi SSW 11.5 mph 17.3 mph N/A   Mostly Cloudy
3:35 PM 81.9 °F 81.1 °F 54.1 °F 38% 29.77 in 10.0 mi South 13.8 mph 20.7 mph N/A   Scattered Clouds
3:55 PM 80.6 °F 80.4 °F 54.1 °F 40% 29.76 in 10.0 mi South 15.0 mph 21.9 mph N/A   Mostly Cloudy
4:15 PM 82.0 °F 81.2 °F 53.6 °F 37% 29.75 in 10.0 mi SSW 11.5 mph 17.3 mph N/A   Scattered Clouds
4:35 PM 80.8 °F 80.3 °F 53.1 °F 38% 29.74 in 10.0 mi South 10.4 mph 16.1 mph N/A   Scattered Clouds
4:55 PM 80.4 °F 80.2 °F 54.3 °F 40% 29.73 in 10.0 mi SSW 9.2 mph 18.4 mph N/A   Scattered Clouds
5:15 PM 79.9 °F - 55.4 °F 43% 29.73 in 10.0 mi SSW 11.5 mph 18.4 mph N/A   Scattered Clouds
5:35 PM 79.7 °F - 56.5 °F 45% 29.72 in 10.0 mi South 10.4 mph - N/A   Scattered Clouds
5:55 PM 79.7 °F - 57.0 °F 46% 29.72 in 10.0 mi South 8.1 mph - N/A   Mostly Cloudy
6:15 PM 79.2 °F - 57.2 °F 47% 29.72 in 10.0 mi South 11.5 mph 16.1 mph N/A   Mostly Cloudy
6:35 PM 78.1 °F - 59.5 °F 53% 29.72 in 10.0 mi SSE 5.8 mph - N/A   Overcast
6:55 PM 77.2 °F - 59.7 °F 55% 29.72 in 10.0 mi South 8.1 mph 17.3 mph N/A   Mostly Cloudy
7:15 PM 76.1 °F - 60.3 °F 58% 29.73 in 10.0 mi South 10.4 mph - N/A   Scattered Clouds
7:35 PM 75.4 °F - 60.8 °F 60% 29.73 in 10.0 mi SSE 6.9 mph - N/A   Scattered Clouds
7:55 PM 74.5 °F - 61.0 °F 63% 29.73 in 10.0 mi SSE 6.9 mph - N/A   Scattered Clouds
8:15 PM 74.3 °F - 61.3 °F 64% 29.73 in 10.0 mi SSE 6.9 mph - N/A   Clear
8:35 PM 73.8 °F - 61.2 °F 65% 29.74 in 10.0 mi South 8.1 mph - N/A   Clear
9:15 PM 72.5 °F - 60.8 °F 67% 29.74 in 10.0 mi South 8.1 mph - N/A   Clear
9:35 PM 71.8 °F - 60.8 °F 68% 29.75 in 10.0 mi South 4.6 mph - N/A   Clear
9:55 PM 71.8 °F - 60.8 °F 68% 29.75 in 10.0 mi South 5.8 mph - N/A   Clear
10:15 PM 72.1 °F - 60.1 °F 66% 29.76 in 10.0 mi South 11.5 mph 17.3 mph N/A   Clear
10:35 PM 72.7 °F - 60.3 °F 65% 29.76 in 10.0 mi South 10.4 mph 17.3 mph N/A   Clear
10:55 PM 72.0 °F - 60.3 °F 67% 29.76 in 10.0 mi South 12.7 mph 20.7 mph N/A   Clear
11:15 PM 71.6 °F - 60.3 °F 67% 29.76 in 10.0 mi South 10.4 mph 16.1 mph N/A   Clear
11:35 PM 70.9 °F - 60.8 °F 70% 29.76 in 10.0 mi South 10.4 mph 17.3 mph N/A   Clear
11:55 PM 70.9 °F - 61.7 °F 73% 29.76 in 10.0 mi South 9.2 mph 17.3 mph N/A   Clear